Location: Dąbrowa Miętka
(51.3714°N, 18.6370°E)
Time: 01:39:50
(UTC+01:00)

ISS - Pass Details

Date: 26 January 2019
Orbit: 403 x 411 km, 51.6° (Epoch: 22 February)

Event Time Altitude Azimuth Distance (km) Brightness Sun altitude
Rises 17:36:35 0° 220° (SW) 2,324 1.0 -11.2°
Reaches altitude 10° 17:38:50 10° 208° (SSW) 1,469 -0.4 -11.6°
Maximum altitude 17:41:40 27° 148° (SSE) 828 -2.4 -12.0°
Enters shadow 17:43:19 18° 104° (ESE) 1,087 -2.2 -12.2°
